This demonstration page uses our WeatherBlox Daily Observations layout. Learn more.

Left ArrowRight Arrow

41.86663, -103.66717

Hourly Observations for November 10, 2019

Temp ( °F °C ) Dew Point ( °F °C ) Humidity (%) Winds ( mph kmh ) Pressure ( in mb ) Visibility ( mi km ) Precip ( " mm )
12:53 am 00:53 Clear 32 0 23 -5 69 69 N 3 6 30.01 1016 10 16 0.00 0.00
1:53 am 01:53 Clear 34 1.1 24 -4.4 67 67 Calm 29.99 1016 10 16 0.00 0.00
2:53 am 02:53 Clear 29 -1.7 22 -5.6 75 75 E 6 9 29.99 1016 10 16 0.00 0.00
3:53 am 03:53 Clear 32 0 24 -4.4 73 73 ESE 7 11 29.97 1015 10 16 0.00 0.00
4:53 am 04:53 Clear 29 -1.7 23 -5 78 78 Calm 29.99 1016 10 16 0.00 0.00
5:53 am 05:53 Clear 28 -2.2 22 -5.6 78 78 E 7 11 30.01 1016 10 16 0.00 0.00
6:53 am 06:53 Sunny 31 -0.6 23 -5 72 72 ENE 7 11 30.02 1017 10 16 0.00 0.00
7:53 am 07:53 Sunny 35 1.7 26 -3.3 70 70 S 3 6 30.04 1017 10 16 0.00 0.00
8:53 am 08:53 Sunny 38 3.3 27 -2.8 65 65 Calm 30.06 1018 10 16 0.00 0.00
9:53 am 09:53 Sunny 43 6.1 28 -2.2 56 56 Calm 30.03 1017 10 16 0.00 0.00
10:53 am 10:53 Sunny 47 8.3 29 -1.7 50 50 Calm 30.01 1016 10 16 0.00 0.00
11:53 am 11:53 Sunny 50 10 28 -2.2 43 43 Calm 30.00 1016 10 16 0.00 0.00
12:53 pm 12:53 Sunny 54 12.2 27 -2.8 35 35 E 3 6 29.97 1015 10 16 0.00 0.00
1:53 pm 13:53 Sunny 50 10 33 0.6 52 52 NNE 22 35 29.98 1015 10 16 0.00 0.00
2:50 pm 14:50 Mostly Cloudy 36 2 30 -1 81 81 NNE 23 37 30.11 1020 10 16 0.00 0.00
2:53 pm 14:53 Mostly Cloudy 35 1.7 31 -0.6 85 85 NNE 23 37 30.10 1019 10 16 0.00 0.00
3:02 pm 15:02 Mostly Cloudy 33 0.6 30 -1.1 89 89 NNE 26 43 30.14 1021 10 16 0.00 0.00
3:53 pm 15:53 Cloudy 26 -3.3 23 -5 88 88 NNE 25 41 30.16 1021 10 16 0.00 0.00
4:46 pm 16:46 Cloudy 25 -4 19 -7 80 80 NNE 17 28 30.35 1028 10 16 0.00 0.00
4:53 pm 16:53 Cloudy 24 -4.4 20 -6.7 84 84 NNE 15 24 30.27 1025 10 16 0.00 0.00
5:53 pm 17:53 Cloudy 24 -4.4 20 -6.7 84 84 NNE 9 15 30.33 1027 10 16 0.00 0.00
6:53 pm 18:53 Cloudy 24 -4.4 20 -6.7 84 84 NNE 14 22 30.35 1028 10 16 0.00 0.00
7:02 pm 19:02 Cloudy with Light Snow 23 -5 19 -7 86 86 NNE 14 22 30.47 1032 10 16 0.00 0.00
7:45 pm 19:45 Cloudy 22 -5.6 17 -8.3 82 82 N 15 24 30.51 1033 10 16 0.00 0.00
7:53 pm 19:53 Cloudy 22 -5.6 16 -8.9 78 78 N 16 26 30.40 1029 10 16 0.00 0.00
8:08 pm 20:08 Cloudy 21 -6.1 16 -8.9 81 81 N 20 31 30.53 1034 10 16 0.00 0.00
8:53 pm 20:53 Cloudy with Light Snow 20 -6.7 16 -8.9 85 85 N 15 24 30.46 1032 6 10 0.00 0.00
9:11 pm 21:11 Cloudy with Light Freezing Rain 19 -7.2 15 -9.4 84 84 N 16 26 30.62 1037 7 11 0.00 0.00
9:24 pm 21:24 Cloudy 19 -7 16 -9 86 86 N 16 26 30.62 1037 10 16 0.00 0.00
9:37 pm 21:37 Cloudy 19 -7.2 14 -10 81 81 NNE 15 24 30.62 1037 10 16 0.00 0.00
9:53 pm 21:53 Cloudy 19 -7.2 13 -10.6 77 77 NNE 12 19 30.48 1032 10 16 0.00 0.00
10:30 pm 22:30 Cloudy with Light Snow 18 -8 12 -11 79 79 N 17 28 30.66 1038 3 4 0.00 0.00
10:53 pm 22:53 Cloudy with Light Snow 17 -8.3 14 -10 88 88 N 12 19 30.51 1033 1 2 0.02 0.51
11:33 pm 23:33 Mostly Cloudy with Light Snow 16 -8.9 13 -10.6 88 88 N 10 17 30.73 1041 1 1 0.03 0.76
11:53 pm 23:53 Mostly Cloudy with Light Snow 15 -9.4 12 -11.1 88 88 N 14 22 30.56 1035 1 1 0.05 1.27

Powered by AerisWeather